Location: Santa Barbara
(34.4500°N, 119.7700°W)
Time: 09:04:31
(UTC-07:00)

N. Korean satellite - Visible Passes

Search period start: 22 October 2019 00:00
Search period end: 01 November 2019 00:00
Orbit: 455 x 508 km, 97.2° (Epoch: 21 October)

Date Brightness Start Highest point End Pass type
(mag) Time Alt. Az. Time Alt. Az. Time Alt. Az.
22 Oct 8.4 06:26:28 10° NNE 06:29:53 38° E 06:33:20 10° SSE visible
23 Oct 9.9 06:01:59 10° NE 06:04:31 18° E 06:07:03 10° SE visible
24 Oct 10.4 19:17:01 10° WSW 19:17:51 11° W 19:18:42 10° WNW visible
25 Oct 7.0 06:43:42 10° NNE 06:47:22 71° E 06:51:03 10° S visible
25 Oct 9.3 18:49:34 10° SSW 18:52:23 24° W 18:55:15 10° NW visible
26 Oct 8.9 06:18:45 10° NE 06:22:02 30° E 06:25:19 10° SSE visible
27 Oct 10.2 05:54:34 10° ENE 05:56:36 14° E 05:58:39 10° SE visible
28 Oct 10.0 19:08:02 10° SW 19:09:53 14° W 19:11:46 10° WNW visible
29 Oct 7.6 06:35:52 10° NNE 06:39:29 54° E 06:43:07 10° S visible
29 Oct 8.8 18:41:22 10° SSW 18:44:26 30° W 18:47:34 10° NNW visible
30 Oct 9.3 06:11:04 10° NE 06:14:07 24° E 06:17:10 10° SSE visible
31 Oct 10.4 05:47:27 10° ENE 05:48:39 11° E 05:49:52 10° ESE visible
